Home > Weather > Camrose > Past weeks

Flag for Canada Weather for the Past 2 Weeks in Camrose, Alberta, Canada

Now
19 °F

Overcast.


Feels Like: 4 °F
Forecast: 13 / 22 °F
Wind: 20 mph from Southeast

Location: Edmonton International

Current Time: Feb 12, 2016 at 4:25:01 PM

Latest Report: Feb 12, 2016 at 3:00 PM


Visibility: 10 mi

Pressure: 30.17 "Hg (27.42 "Hg at 744m altitude)

Humidity: 86%

Dew point: 16 °F

Location of CamroseLocation

Historic Weather in Camrose — Graph

°F

Camrose Temperature Yesterday

Maximum temperature yesterday: 27 °F (at 11:46 AM)
Minimum temperature yesterday: 18 °F (at 10:00 PM)
Average temperature yesterday: 23 °F

High & Low Weather Summary for the Past Weeks

 TemperatureHumidityPressure
High46 °F (Jan 28, 6:00 PM)100% (Jan 31, 10:00 AM)30.50 "Hg (Jan 31, 10:00 AM)
Low1 °F (Feb 3, 10:00 PM)42% (Feb 6, 10:00 AM)29.33 "Hg (Jan 28, 3:00 PM)
Average25 °F76%30.04 "Hg
* Reported Jan 28 3:00 PM — Feb 12 3:00 PM, Camrose, Weather by CustomWeather, © 2016

Note: Actual official high and low records may vary slightly from our data, if they occured in-between our weather recording intervals... More about our weather records

Advertising

Camrose Weather History for the Previous 24 Hours

 ConditionsComfort  
Time TempWeatherWind HumidityBarometerVisibility
3:00 PM
Fri, Feb 12
19 °FOvercast.20 mph86%30.17 "Hg10 mi
2:00 PM19 °FOvercast.21 mph86%30.22 "Hg10 mi
1:00 PM19 °FOvercast.21 mph86%30.25 "Hg15 mi
12:00 PM19 °FMostly cloudy.25 mph86%30.29 "Hg15 mi
11:00 AM19 °FMostly cloudy.21 mph86%30.32 "Hg10 mi
10:00 AM19 °FIce fog.20 mph86%30.34 "Hg2 mi
9:00 AM19 °FLight snow. Low clouds.23 mph86%30.35 "Hg2 mi
8:00 AM19 °FLight snow. Overcast.17 mph93%30.38 "Hg2 mi
7:00 AM18 °FLight snow. Low clouds.20 mph93%30.39 "Hg3 mi
6:00 AM18 °FLight snow. Low clouds.15 mph86%30.41 "Hg4 mi
5:00 AM16 °FLight snow. Low clouds.16 mph93%30.43 "Hg12 mi
4:00 AM16 °FLow clouds.15 mph86%30.46 "Hg15 mi
3:00 AM16 °FMostly cloudy.15 mph86%30.47 "Hg15 mi
2:00 AM16 °FOvercast.14 mph86%30.47 "Hg15 mi
1:46 AM16 °FOvercast.14 mph86%30.47 "Hg15 mi
1:00 AM16 °FMostly cloudy.13 mph86%30.47 "Hg15 mi
12:49 AM16 °FMostly cloudy.13 mph86%30.48 "Hg15 mi
12:00 AM16 °FLight snow. Overcast.12 mph86%30.48 "Hg15 mi
11:00 PM
Thu, Feb 11
18 °FLight snow. Low clouds.15 mph79%30.49 "Hg12 mi
10:00 PM18 °FMostly cloudy.8 mph86%30.50 "Hg15 mi
9:00 PM19 °FOvercast.10 mph79%30.48 "Hg15 mi
8:00 PM19 °FMostly cloudy.12 mph86%30.46 "Hg15 mi
7:00 PM21 °FMostly cloudy.9 mph86%30.44 "Hg15 mi
6:00 PM21 °FMostly cloudy.12 mph86%30.41 "Hg15 mi
5:00 PM25 °FMore clouds than sun.9 mph80%30.40 "Hg15 mi
4:00 PM27 °FCloudy.7 mph86%30.37 "Hg15 mi
Weather by CustomWeather, © 2016

See weather overviewHow to use our weather pages